STARLINK-5674, 55465

Orbit data source: Space-Track

STARLINK-5674, 55465 is a payload satellite owned by SpaceX/Seattle (US) in LEO that was launched on Thu, 02 Feb 2023 UTC via an FALCON 9 launch vehicle from the Air Force Eastern Test Range (AFETR). Payload-class satellites include a variety of spacecraft equipped with specific instruments for various scientific and technological missions. These include communications satellites like Starlink; space stations such as the ISS; scientific satellites like the Hubble; Earth observation satellites from companies like Planet Labs, Umbra, and HawkEye 360; GPS; miniature CubeSats for education and research; and military/defense satellites.

Loading next visibility...
Identifier
55465, 2023-015S
Orbit
LEO
Country
Flag of USUS
Related business
Manufacturer
SpaceX/Seattle
Mission
Operational Commercial Communications
Bus & Motor
STARLINK, Unknown motor
Mass
305 kg wet, ~290 kg dry
Launch date (UTC)
2023-02-02 (4 years ago)
Launch vehicle
FALCON 9
Launch site
Air Force Eastern Test Range (AFETR)
Object type
Payload
Rocket body
Debris
Shape & HBR
Box + 1 Pan, 10.1 m
Radar Cross Section
13.562 m², Large (>1 m²)

Expand to show TLE details & history
Last TLE update: 5 hours ago

TLE from 5 hours ago
0 STARLINK-5674
1 55465U 23015S   26258.50461762  .00016804  00000-0  61810-3 0  9998
2 55465  43.0027 336.5898 0001329 269.7172  90.3527 15.27616651199751
Epoch: 2026-09-15T12:06Z
TLE epoch observation values (Epoch: 2026-09-15T12:06:38.962Z)
Latitude
-0.00004°
Longitude
160.45781°
Altitude
482.721 km
Speed
7.626 km/s
True Right ascension
22h 26m 21s
True Declination
0° 00' 00"
Sunlit
Object was in full shadow at epoch
Visualization orbit readout
Latitude
Unknown
Longitude
Unknown
Altitude
Unknown
Speed
Unknown
Apparent Right ascension
Unknown
Apparent Declination
Unknown
Sunlit
N/A
Visualization observer readout
Local Sidereal Time
09:26:46
Azimuth
Unknown
Elevation
Unknown
Doppler factor
Unknown
Orbital elements
Apogee altitude
485.796 km
Perigee altitude
483.972 km
Semi-major axis
6,863.021 km
Eccentricity
0.00013
Inclination
43.0027°
RAAN
336.5898°
Arg. of periapsis
269.7172°
True anomaly
90.36793°
Mean anomaly
90.3527°
Eccentric anomaly
90.36031°
Mean motion
3.81742 °/min
Orbital period
94.3 mins
BSTAR
0.0006181
Loading maneuver chart data...
Computing Atmospheric mass density...
Loading historical data...
Loading historical data...
Loading historical data...
Loading historical data...
Loading historical data...
Loading historical data...
Loading historical data...

Documentation

Showing up to 5 results
|